Regional Weather Roundup
Issued by NWS Burlington, VT

Home | Current Version | Previous Version | Text Only | Print | Product List | Glossary On
Versions: 1 2 3 4 5 6 7 8 9 10 11 12 13 14 15 16 17 18 19 20 21 22 23 24 25 26 27 28 29 30 31 32 33 34 35 36 37 38 39 40 41 42 43 44 45 46 47 48 49 50
000
ASUS41 KBTV 290830
RWRBTV
VERMONT REGIONAL WEATHER ROUNDUP
NATIONAL WEATHER SERVICE BURLINGTON VT
400 AM EDT FRI JUL 29 2016

NOTE: "FAIR" INDICATES FEW OR NO CLOUDS BELOW 12,000 FEET WITH NO
SIGNIFICANT WEATHER AND/OR OBSTRUCTIONS TO VISIBILITY.

* THESE REPORTS ARE NOT UNDER NWS QUALITY CONTROL AND/OR DO NOT
  REPORT WEATHER SUCH AS PRECIPITATION AND FOG.

VTZ001>019-290900-
_____VERMONT_____


CITY           SKY/WX    TMP DP  RH WIND       PRES   REMARKS
BURLINGTON     MOCLDY    69  64  84 NE3       29.90S
MONTPELIER     CLOUDY    65  65 100 CALM      29.96S FOG
MORRISVILLE    CLOUDY    64  63  96 CALM      29.94S FOG
ST. JOHNSBURY*   N/A     65  63  93 MISG      29.90S
LYNDONVILLE*   CLOUDY    63  62  97 CALM      29.94S FOG
MIDDLEBURY*    FAIR      64  64 100 CALM      29.90F
RUTLAND*       CLOUDY    65  64  97 CALM      29.91F
SPRINGFIELD    FAIR      66  63  90 CALM      29.90S
HIGHGATE*      CLOUDY    65  65  99 CALM      29.90S FOG
NEWPORT*       CLOUDY    64  64  99 CALM      29.93S FOG
BENNINGTON     CLOUDY    67  65  93 CALM      29.91S FOG
GALLUP MILLS*    N/A     61 N/A N/A MISG        N/A
UNION VILLAGE*   N/A     64 N/A N/A MISG        N/A
MT. MANSFIELD*   N/A     59 N/A N/A CALM        N/A

_____LAKE CHAMPLAIN_____


CITY           SKY/WX    TMP DP  RH WIND       PRES   REMARKS
BURTON ISLAND*   N/A     72  68  88 SW1         N/A
COLCHESTER RF*   N/A     72  68  88 NW6         N/A
DIAMOND ISL*     N/A     72  64  78 W1          N/A

$$

NYZ007-026>031-035-052-083-087-290900-
_____NORTHERN NEW YORK_____


CITY           SKY/WX    TMP DP  RH WIND       PRES   REMARKS
PLATTSBURGH    CLOUDY    66  65  96 CALM      29.89F
SARANAC LAKE   CLOUDY    61  59  93 CALM      29.94F
MASSENA        PTCLDY    62  58  86 N7        29.93R
OGDENSBURG*    PTCLDY    64  61  88 N7        29.92S
POTSDAM*       MOCLDY    63  63 100 CALM      29.93R
STARK FALLS*     N/A    136 N/A N/A N1          N/A
WATERTOWN      PTCLDY    66  64  93 E3        29.91R
FT DRUM        CLOUDY    66  65  97 CALM      29.91S
ALBANY         LGT RAIN  69  67  93 N6        29.87F FOG
GLENS FALLS    CLOUDY    67  64  90 CALM      29.89S FOG

$$
NHZ002-005-011-290900-
_____NEW HAMPSHIRE_____


CITY           SKY/WX    TMP DP  RH WIND       PRES   REMARKS
LEBANON        CLOUDY    67  64  90 CALM      29.90S
KEENE          CLOUDY    70  66  87 E3        29.88S
MT WASHINGTON  MOCLDY    52  50  93 W17         N/A
PLYMOUTH       FAIR      65  63  96 CALM      29.89S FOG
WHITEFIELD     CLOUDY    60  57  89 CALM      29.93S

$$

_____REGIONAL QUEBEC LOCATIONS_____


CITY           SKY/WX    TMP DP  RH WIND       PRES   REMARKS
MONTREAL       PTCLDY    64  55  72 NW9       29.92R
QUEBEC CITY    PTCLDY    63  57  82 N6        29.89F
SHERBROOKE     CLOUDY    63  61  94 E3        29.91S

_____REGIONAL ONTARIO LOCATIONS_____


CITY           SKY/WX    TMP DP  RH WIND       PRES   REMARKS
OTTAWA         CLEAR     64  55  72 N9        29.95R

______KEY______
VSB  - VISIBILITY IN MILES
WCI  - WIND CHILL INDEX
HX   - HEAT INDEX
$$
NNNN




USA.gov is the U.S. government's official web portal to all federal, state and local government web resources and services.